Regional Weather Roundup
Issued by NWS Glasgow, MT

Home | Current Version | Previous Version | Text Only | Print | Product List | Glossary On
Versions: 1 2 3 4 5 6 7 8 9 10 11 12 13 14 15 16 17 18 19 20 21 22 23 24 25 26 27 28 29 30 31 32 33 34 35 36 37 38 39 40 41 42 43 44 45 46 47 48 49 50
000
ASUS45 KGGW 292115
RWRGGW
HOURLY REGIONAL WEATHER ROUNDUP FOR NORTHEAST MONTANA
NATIONAL WEATHER SERVICE GLASGOW MONTANA
300 PM MDT THU SEP 29 2016

NOTE: "FAIR" INDICATES FEW OR NO CLOUDS BELOW 12,000 FEET WITH NO
SIGNIFICANT WEATHER AND/OR OBSTRUCTIONS TO VISISBILITY.

NORTHEAST MONTANA


CITY           SKY/WX    TMP DP  RH WIND       PRES   REMARKS
GLASGOW        SUNNY     80  45  28 S16G25    30.04F
PLENTYWOOD       N/A     78  40  25 SE17G25     N/A
WOLF POINT     SUNNY     84  46  26 S10G17    30.05F
JORDAN           N/A     79  48  33 VRB7      30.05F
WINNETT          N/A     80  45  28 S7G15       N/A
SIDNEY         SUNNY     80  50  34 SE13      30.11F
GLENDIVE       SUNNY     81  49  32 SE13      30.10F
SCOBEY           N/A     81  44  27 SE13G21   30.07F
OPHEIM           N/A     77  39  25 SE13      29.83F

FORT PECK REPORTS


CITY           SKY/WX    TMP DP  RH WIND       PRES   REMARKS
FORT PECK        N/A     75  53  46 SE14        N/A
THE PINES        N/A     79  46  31 S2G12       N/A

SOUTHEAST MONTANA


CITY           SKY/WX    TMP DP  RH WIND       PRES   REMARKS
BILLINGS       MOSUNNY   74  45  35 E5        30.08F
MILES CITY     SUNNY     82  47  29 SE8       30.05F
BAKER          SUNNY     77  44  30 SE24G32   30.14F
LIVINGSTON     CLOUDY    81  42  25 SW14G22   30.10F

CENTRAL MONTANA


CITY           SKY/WX    TMP DP  RH WIND       PRES   REMARKS
HAVRE          SUNNY     74  53  48 E5        30.02F
LEWISTOWN      CLOUDY    79  42  26 W7        30.06F
GREAT FALLS    SUNNY     75  50  41 NE9       30.03F
CUT BANK       FAIR      69  47  45 SE7       30.06F
HELENA         SUNNY     77  50  38 CALM      30.05F
BUTTE          MOSUNNY   76  37  24 SE10      30.13F
BOZEMAN        CLOUDY    76  51  41 SE3       30.10F

WESTERN MONTANA


CITY           SKY/WX    TMP DP  RH WIND       PRES   REMARKS
MISSOULA       FAIR      73  46  38 W8        30.01F
KALISPELL      NOT AVBL

NORTH DAKOTA


CITY           SKY/WX    TMP DP  RH WIND       PRES   REMARKS
WILLISTON      SUNNY     76  48  37 SE15      30.15F
DICKINSON      SUNNY     73  41  31 SE25      30.18
MINOT          SUNNY     71  45  39 SE18G24   30.25F
BISMARCK       SUNNY     71  46  40 SE20G26   30.28F

SOUTHERN SASKATCHEWAN


CITY           SKY/WX    TMP DP  RH WIND       PRES   REMARKS
REGINA         MOSUNNY   79  41  25 SE21G32   30.09F
MOOSE JAW      MOSUNNY   81  50  34 S9G17     30.07F
ESTEVAN        MOSUNNY   73  46  38 SE20G25   30.18F
SWIFT CURRENT  SUNNY     73  52  46 SE10      30.05F




USA.gov is the U.S. government's official web portal to all federal, state and local government web resources and services.